Search your local weather  

 

Hazardous Weather Conditions

Beach Hazards Statement issued September 27 at 3:36AM CDT until September 28 at 10:00PM CDT
Beach Hazards Statement issued September 27 at 9:31AM CDT until September 28 at 10:00PM CDT
Beach Hazards Statement issued September 27 at 3:25PM CDT until September 28 at 10:00PM CDT
Beach Hazards Statement issued September 27 at 8:25PM CDT until September 28 at 10:00PM CDT
Beach Hazards Statement issued September 28 at 3:32AM CDT until September 28 at 10:00PM CDT
Beach Hazards Statement issued September 28 at 11:00AM CDT until September 28 at 10:00PM CDT
Beach Hazards Statement issued September 28 at 3:38PM CDT until September 28 at 10:00PM CDT

Current Conditions: CHICAGO, ILLINOIS

Mostly Clear


57.9 F

Last Updated on Sep 28 2022, 03:52 PM CDT
Humidity: 51%
Wind Speed: NE 8.1 mph
Barometer 30.48 in
Dewpoint: 39.9 F
Visibility: 10.00 mi
Precip: --
Heat Index: NA
Wind Chill: NA
Current conditions at:

PALWAUKEE (KPWK)

Lat: 42.12 Lon: -87.92

Local Radar Image active severe weather and emergency alerts image image weather storm and storm spotter reports image weather observation monitoring service image
Local
Radar
Active
Alerts
Storm Reports Weather
Monitoring

5 Day Forecast for CHICAGO, ILLINOIS (60601)

Wednesday

Mostly Cloudy

High 58 °F
Wednesday
Night
Partly Cloudy

Low 49 °F
Thursday

Partly Sunny

High 61 °F
Thursday
Night
Partly Cloudy

Low 52 °F
Friday

Mostly Sunny

High 63 °F
Friday
Night
Clear

Low 55 °F
Saturday

Mostly Sunny

High 67 °F
Saturday
Night
Mostly Clear

Low 57 °F
Sunday

Partly Sunny

High 66 °F

Sign-up For Email & Text Message Weather Alert Notification Services



Advertise Here

Observation History for CHICAGO, ILLINOIS


Time Wind
(mph)
Vis
(mi)
Weather Precip (in) Temperature (F) Relative
Humidity
Wind
Chill
(F)
Heat
Index
(F)
Pressure
Air Dwpt altimeter
(in)
sea level
(mb)
03:52 PM CDT NE 8.1 10.00 Mostly Clear -- 57.9 39.9 51% NA NA 30.48 1032.2
02:52 PM CDT NE 9.2 10.00 Clear -- 57.9 39.9 51% NA NA 30.48 1032.2
01:52 PM CDT NE 8.1 10.00 Mostly Cloudy -- 57.9 41.0 53% NA NA 30.48 1032.2
12:52 PM CDT 10.3 10.00 Mostly Cloudy -- 57.9 43.0 57% NA NA 30.49 1032.5
12:09 PM CDT 10.00 Mostly Cloudy -- NULL % NA NA M
11:52 AM CDT 8.1 10.00 Mostly Cloudy -- 57.9 44.1 60% NA NA 30.49 1032.5
11:32 AM CDT 11.4 10.00 Mostly Cloudy -- 55.9 43.0 62% NA NA 30.49 1032.5
10:52 AM CDT 5.8 10.00 Mostly Clear -- 55.9 43.0 62% NA NA 30.48 1032.2
09:52 AM CDT 8.1 10.00 Clear -- 52.0 41.0 66% NA NA 30.47 1031.8
07:52 AM CDT 10.3 10.00 Clear -- 46.9 37.9 71% 42.1 NA 30.43 1030.5
06:52 AM CDT 8.1 10.00 Mostly Clear -- 46.0 37.9 73% 41.9 NA 30.41 1029.8
05:52 AM CDT 10.3 10.00 Clear -- 46.0 39.0 76% 41.0 NA 30.38 1028.8
04:52 AM CDT 9.2 10.00 Mostly Clear -- 46.9 39.9 76% 42.6 NA 30.36 1028.1
03:52 AM CDT 10.3 10.00 Mostly Cloudy -- 48.9 39.9 71% 44.6 NA 30.34 1027.4
02:52 AM CDT 9.2 10.00 Mostly Clear -- 48.0 42.1 80% 43.9 NA 30.33 1027.1
01:52 AM CDT 9.2 10.00 Cloudy -- 48.9 42.1 77% 45.0 NA 30.32 1026.8
12:52 AM CDT 9.2 10.00 Cloudy -- 48.9 42.1 77% 45.0 NA 30.31 1026.4
11:52 PM CDT 6.9 10.00 Partly Cloudy -- 48.9 41.0 74% 45.9 NA 30.30 1026.1
10:52 PM CDT 8.1 10.00 Clear -- 50.0 41.0 71% NA NA 30.30 1026.1
09:52 PM CDT 8.1 10.00 Mostly Cloudy -- 52.0 39.9 63% NA NA 30.27 1025.1
08:52 PM CDT 13.9 10.00 Cloudy -- 53.1 39.0 59% NA NA 30.26 1024.7
07:52 PM CDT 8.1 10.00 Cloudy -- 54.0 39.0 57% NA NA 30.25 1024.1
06:52 PM CDT 6.9 10.00 Cloudy -- 55.0 37.9 52% NA NA 30.23 1023.7
05:52 PM CDT 10.3 10.00 Mostly Cloudy -- 55.9 37.9 51% NA NA 30.21 1023.0

Regional Weather Observation

CHICAGO O HARE (KORD)

Partly Cloudy
59.0 F

WAUKEGAN (KUGN)

Mostly Clear
55.9 F

CHICAGO (KMDW)

Mostly Cloudy
62.1 F

SCHAUMBURG (K06C)

NULL
NULL F

KENOSHA (KENW)

Mostly Clear
55.9 F

CHICAGO/DUPAGE (KDPA)

Clear
61.0 F

Advertise Here


Advertise Here